Duchifat 3
1 44854U 19089C   25078.55290345  .00084959  00000-0  22199-2 0  9997
2 44854  36.9459 153.6127 0005798 222.1495 137.8813 15.37598539290278
TO-108
1 44881U 19093C   25078.85312189  .00003363  00000-0  39677-3 0  9996
2 44881  97.7969 156.2084 0014924 136.2877 223.9523 14.85303015283946
FloripaSat 1
1 44885U 19093G   25078.84886571  .00019270  00000-0  16750-2 0  9990
2 44885  97.8163 166.3605 0012250 119.8578 240.3862 14.96967807284513
RS-44
1 44909U 19096E   25078.54336490  .00000024  00000-0  45962-4 0  9993
2 44909  82.5169 281.7984 0218297 127.2504 234.8730 12.79739337244196
UPMSat 2
1 46276U 20061E   25078.74215721  .00092327  00000-0  12750-2 0  9995
2 46276  97.2539 151.0333 0001731 160.6288 199.5034 15.56856192252683
SALSAT
1 46495U 20068K   25078.49977909  .00021017  00000-0  95163-3 0  9998
2 46495  97.8545  52.8731 0014346  87.5316 272.7561 15.20820756246044
CubeSX-Sirius-HSE
1 47951U 21022V   25078.88970678  .00186763  00000-0  22548-2 0  9992
2 47951  97.4271 347.4995 0005402 192.4057 167.7068 15.60104163220970
CubeSX-HSE
1 47952U 21022W   25078.72969245  .00183007  00000-0  21653-2 0  9998
2 47952  97.4278 347.5401 0005655 185.1064 175.0136 15.60646188220963
KSU-Cubesat
1 47954U 21022Y   25078.81900048  .02583911  14066-1  24272-2 0  9994
2 47954  97.4049 353.2059 0008066 162.1681 197.9890 16.15664059221052
GRBAlpha
1 47959U 21022AD  25078.82407712  .00178164  00000-0  21268-2 0  9992
2 47959  97.4262 347.7825 0005376 191.6451 168.4682 15.60430458219801
Orbicraft-Zorkiy
1 47960U 21022AE  25078.72469975  .00430613  00000-0  23220-2 0  9992
2 47960  97.4223 351.4522 0006732 153.1981 206.9635 15.78986011220699
TUBIN
1 48900U 21059X   25078.81672725  .00075794  00000-0  12777-2 0  9996
2 48900  97.6705 241.9533 0004574 190.7393 169.3761 15.51405780207329
LEDSAT
1 49069U 21073D   25078.77467057  .00093858  00000-0  17345-2 0  9991
2 49069  97.3959 157.5850 0010652  19.7209 340.4452 15.48671420198722
CUTE
1 49263U 21088D   25078.76226969  .00030000  00000-0  67957-3 0  9992
2 49263  97.4573 152.8403 0009832 173.3538 186.7841 15.43012423191793
TeikyoSat 4
1 49396U 21102B   25078.57096738  .00006374  00000-0  42780-3 0  9998
2 49396  97.4219 119.9368 0014209  60.0195 300.2441 15.07074364184193
Z-Sat
1 49399U 21102E   25078.86073688  .00012458  00000-0  69936-3 0  9994
2 49399  97.3918 122.8330 0019076  32.3134 327.9262 15.13317297184611
KOSEN 1
1 49402U 21102H   25078.68798658  .00019002  00000-0  91766-3 0  9998
2 49402  97.3822 125.4934 0016328  11.3377 348.8222 15.18577627184856
HO-113
1 50466U 21131B   25078.88099672  .00002118  00000-0  67765-3 0  9996
2 50466  98.5087 168.6524 0004493  36.9576 323.1921 14.40635409169685
IRIS-A
1 51044U 22002BN  25078.67152695  .00189327  00000-0  18521-2 0  9992
2 51044  97.3351 154.8384 0003262 148.4707 211.6749 15.65531099176942
Foresail-1
1 52766U 22057AL  25078.46309601  .00138988  00000-0  14442-2 0  9997
2 52766  97.6015 222.2897 0006785 229.2578 130.8092 15.64140789156942
SNUGLITE 2
1 52899U 22065F   25078.35353901  .00004187  00000-0  82853-3 0  9998
2 52899  98.1539 221.2051 0007611  19.5755 340.5738 14.62831101144466
IO-117
1 53106U 22080B   25051.21822557 -.00000003  00000-0  00000+0 0  9995
2 53106  70.1434 106.3440 0008542  48.0089 312.1297  6.42557744 61200
UmKA 1 (RS40S)
1 57172U 23091G   25078.89150574  .00017362  00000-0  95996-3 0  9998
2 57172  97.5691 134.7284 0013585 253.8136 106.1600 15.13866921 95112
CubeBel-2 (EU11S)
1 57175U 23091K   25078.78361837  .00023727  00000-0  12007-2 0  9998
2 57175  97.5687 135.3210 0011605 263.6534  96.3378 15.16959522 95146
VERONIKA
1 58261U 23174F   25078.74441397  .00130536  00000-0  22792-2 0  9992
2 58261  97.4206 161.2717 0005700 328.4266  31.6643 15.50196237 75925
KAFASAT
1 58317U 23174BP  25078.86457774  .00826986  00000-0  31550-2 0  9996
2 58317  97.4040 165.9022 0008945 270.2379  89.7866 15.85494858 76263
ENSO
1 58470U 23185J   25078.77031363  .00082651  00000-0  17052-2 0  9994
2 58470  97.3820 151.8309 0007102  20.1084 340.0444 15.45551792 72357
EIRSAT-1
1 58472U 23185L   25078.88685056  .00119228  00000-0  20383-2 0  9994
2 58472  97.3805 152.8526 0005650  16.8679 343.2760 15.50837344 72433
SONATE-2
1 59112U 24043Q   25078.30719239  .00035615  00000-0  11587-2 0  9991
2 59112  97.5007 208.1130 0011675  49.8863 310.3399 15.31726777 57726
MO-122
1 60209U 24125G   25078.53337141  .00041492  00000-0  13286-2 0  9992
2 60209  97.2904 291.2221 0021694  72.8830 287.4786 15.32036000 39373
GRBBeta
1 60237U 24128C   25078.86041416  .00015833  00000-0  12060-2 0  9998
2 60237  61.9943   4.2820 0044250  39.6206 320.8103 15.01487840 37925
Curium One
1 60242U 24128H   25078.14954625  .00021872  00000-0  15870-2 0  9992
2 60242  61.9844   6.1061 0044375  34.9548 325.4442 15.03140485 37834
ROBUSTA-3A
1 60243U 24128J   25078.86105900  .00026118  00000-0  19112-2 0  9997
2 60243  61.9913   4.1979 0042581  32.8688 327.5038 15.02802831 37931
CatSat
1 60246U 24125J   25078.57917247  .00023519  00000-0  83319-3 0  9993
2 60246  97.2691 291.3262 0045196  28.1272 332.2395 15.28119348 37454
HYPERVIEW-1G (RS66S)
1 61772U 24199AP  25078.78461282  .00047018  00000-0  15664-2 0  9992
2 61772  97.3669 307.9897 0016311 122.3805 237.9017 15.30832804 64420
AO-123
1 61781U 24199AY  25078.89972717  .00018317  00000-0  69692-3 0  9995
2 61781  97.3676 307.6992 0017807 123.9876 236.3058 15.26661243 64416
ZIMSAT 2
1 61783U 24199BA  25078.78127003  .00065521  00000-0  20181-2 0  9993
2 61783  97.3662 308.1390 0017161 121.5911 238.7009 15.33243985 67588
POEM 4 (BGS ARPIT)
1 62461U 24253C   25078.76918692  .00546543  14216-3  10450-2 0  9991
2 62461  55.2128 236.6043 0000706 144.3445 215.7661 16.00092432 12509
HADES-R (SO-124)
1 62690U 25009CK  25078.89481734  .00076086  00000-0  33657-2 0  9998
2 62690  97.4146 160.4194 0001708  23.5855 336.5459 15.21366197  9695
HYDRA-T
1 62692U 25009CM  25078.16715185  .00063701  00000-0  28213-2 0  9992
2 62692  97.4144 159.7104 0001429  19.3711 340.7579 15.21388419  9580
